When you browse on this site, cookies collect data to enhance your experience and personalize the content and advertising you see.
Visit our Privacy Policy to learn more. By continuing to use the site, you agree to this use of cookies and data.
EN

Hourly Weather Acerra

Today, 5 August, Wednesday

Time Temperature Precipitation Wind Pressure Humidity
00:00 +24°C° 0 mm 1 mps 753 mmHg 61%
01:00 +24°C° 0 mm 1 mps 753 mmHg 61%
02:00 +23°C° 0.1 mm 1 mps 753 mmHg 62%
03:00 +23°C° 0.1 mm 1 mps 753 mmHg 63%
04:00 +23°C° 0.1 mm 1 mps 752 mmHg 64%
05:00 +24°C° 0 mm 1 mps 752 mmHg 61%
06:00 +24°C° 0 mm 1 mps 752 mmHg 59%
07:00 +25°C° 0 mm 1 mps 752 mmHg 56%
08:00 +27°C° 0.1 mm 1 mps 753 mmHg 50%
09:00 +28°C° 0.1 mm 1 mps 753 mmHg 44%
10:00 +30°C° 0.1 mm 2 mps 753 mmHg 39%
11:00 +30°C° 0 mm 2 mps 753 mmHg 38%
12:00 +30°C° 0 mm 3 mps 753 mmHg 37%
13:00 +31°C° 0 mm 3 mps 753 mmHg 36%
14:00 +30°C° 0.2 mm 3 mps 753 mmHg 40%
15:00 +29°C° 0.2 mm 2 mps 753 mmHg 44%
16:00 +28°C° 0.2 mm 2 mps 753 mmHg 48%
17:00 +27°C° 0.7 mm 2 mps 753 mmHg 53%
18:00 +26°C° 0.7 mm 2 mps 753 mmHg 58%
19:00 +25°C° 0.7 mm 1 mps 754 mmHg 64%
20:00 +24°C° 0 mm 1 mps 754 mmHg 64%
21:00 +24°C° 0 mm 1 mps 754 mmHg 65%
22:00 +24°C° 0 mm 1 mps 755 mmHg 66%
23:00 +23°C° 0 mm 1 mps 755 mmHg 67%

Tomorrow, 6 August, Thursday

Time Temperature Precipitation Wind Pressure Humidity
00:00 +23°C° 0 mm 2 mps 755 mmHg 68%
01:00 +23°C° 0 mm 2 mps 755 mmHg 69%
02:00 +23°C° 0 mm 2 mps 755 mmHg 70%
03:00 +23°C° 0 mm 2 mps 755 mmHg 71%
04:00 +21°C° 0 mm 2 mps 755 mmHg 72%
05:00 +23°C° 0 mm 2 mps 755 mmHg 69%
06:00 +24°C° 0 mm 2 mps 755 mmHg 66%
07:00 +25°C° 0 mm 2 mps 755 mmHg 63%
08:00 +27°C° 0 mm 2 mps 755 mmHg 56%
09:00 +29°C° 0 mm 1 mps 756 mmHg 48%
10:00 +30°C° 0 mm 1 mps 756 mmHg 41%
11:00 +31°C° 0 mm 2 mps 756 mmHg 39%
12:00 +33°C° 0 mm 3 mps 756 mmHg 37%
13:00 +34°C° 0 mm 4 mps 756 mmHg 35%
14:00 +33°C° 0 mm 4 mps 756 mmHg 38%
15:00 +32°C° 0 mm 4 mps 756 mmHg 40%
16:00 +30°C° 0 mm 4 mps 756 mmHg 43%
17:00 +30°C° 0.1 mm 3 mps 756 mmHg 47%
18:00 +29°C° 0.1 mm 3 mps 756 mmHg 52%
19:00 +28°C° 0.1 mm 2 mps 756 mmHg 56%
20:00 +27°C° 0 mm 2 mps 757 mmHg 58%
21:00 +26°C° 0 mm 2 mps 757 mmHg 61%
22:00 +26°C° 0 mm 1 mps 757 mmHg 63%
23:00 +26°C° 0 mm 1 mps 757 mmHg 63%

Day after tomorrow, 7 August, Friday

Time Temperature Precipitation Wind Pressure Humidity
00:00 +25°C° 0 mm 1 mps 757 mmHg 63%
01:00 +25°C° 0 mm 1 mps 757 mmHg 64%
02:00 +25°C° 0 mm 1 mps 757 mmHg 64%
03:00 +25°C° 0 mm 2 mps 757 mmHg 64%
04:00 +25°C° 0 mm 2 mps 757 mmHg 64%
05:00 +25°C° 0 mm 2 mps 757 mmHg 61%
06:00 +26°C° 0 mm 2 mps 757 mmHg 59%
07:00 +27°C° 0 mm 2 mps 757 mmHg 56%
08:00 +28°C° 0 mm 2 mps 757 mmHg 50%
09:00 +30°C° 0 mm 2 mps 758 mmHg 44%
10:00 +32°C° 0 mm 2 mps 758 mmHg 39%
11:00 +32°C° 0 mm 2 mps 758 mmHg 36%
12:00 +34°C° 0 mm 3 mps 758 mmHg 34%
13:00 +35°C° 0 mm 3 mps 758 mmHg 32%
14:00 +34°C° 0 mm 3 mps 757 mmHg 34%
15:00 +34°C° 0 mm 4 mps 757 mmHg 36%
16:00 +33°C° 0 mm 4 mps 757 mmHg 39%
17:00 +32°C° 0 mm 4 mps 757 mmHg 41%
18:00 +30°C° 0 mm 3 mps 758 mmHg 44%
19:00 +30°C° 0 mm 3 mps 758 mmHg 46%
20:00 +29°C° 0 mm 2 mps 758 mmHg 50%
21:00 +28°C° 0 mm 2 mps 758 mmHg 53%
22:00 +27°C° 0 mm 1 mps 758 mmHg 56%
23:00 +27°C° 0 mm 1 mps 758 mmHg 56%

8 August, Saturday

Time Temperature Precipitation Wind Pressure Humidity
00:00 +26°C° 0 mm 1 mps 758 mmHg 56%
01:00 +26°C° 0 mm 1 mps 758 mmHg 56%
02:00 +26°C° 0 mm 1 mps 757 mmHg 57%
03:00 +25°C° 0 mm 1 mps 757 mmHg 57%
04:00 +25°C° 0 mm 1 mps 757 mmHg 58%
05:00 +26°C° 0 mm 1 mps 757 mmHg 55%
06:00 +27°C° 0 mm 2 mps 757 mmHg 52%
07:00 +28°C° 0 mm 2 mps 757 mmHg 49%
08:00 +30°C° 0 mm 2 mps 757 mmHg 44%
09:00 +32°C° 0 mm 2 mps 757 mmHg 39%
10:00 +35°C° 0 mm 2 mps 757 mmHg 33%
11:00 +35°C° 0 mm 2 mps 757 mmHg 32%
12:00 +36°C° 0 mm 3 mps 757 mmHg 31%
13:00 +36°C° 0 mm 4 mps 757 mmHg 30%
14:00 +35°C° 0 mm 4 mps 757 mmHg 33%
15:00 +35°C° 0 mm 4 mps 757 mmHg 35%
16:00 +34°C° 0 mm 3 mps 756 mmHg 37%
17:00 +33°C° 0 mm 3 mps 756 mmHg 40%
18:00 +31°C° 0 mm 3 mps 756 mmHg 42%
19:00 +30°C° 0 mm 2 mps 757 mmHg 44%
20:00 +29°C° 0 mm 2 mps 757 mmHg 47%
21:00 +29°C° 0 mm 1 mps 757 mmHg 49%
22:00 +28°C° 0 mm 1 mps 757 mmHg 52%
23:00 +27°C° 0 mm 1 mps 757 mmHg 53%

9 August, Sunday

Time Temperature Precipitation Wind Pressure Humidity
00:00 +27°C° 0 mm 1 mps 757 mmHg 53%
01:00 +27°C° 0 mm 1 mps 757 mmHg 54%
02:00 +27°C° 0 mm 2 mps 756 mmHg 55%
03:00 +26°C° 0 mm 2 mps 756 mmHg 56%
04:00 +26°C° 0 mm 2 mps 756 mmHg 57%
05:00 +27°C° 0 mm 2 mps 756 mmHg 54%
06:00 +28°C° 0 mm 2 mps 756 mmHg 52%
07:00 +29°C° 0 mm 2 mps 756 mmHg 50%
08:00 +31°C° 0 mm 2 mps 756 mmHg 43%
09:00 +34°C° 0 mm 3 mps 756 mmHg 37%
10:00 +36°C° 0 mm 3 mps 756 mmHg 30%
11:00 +37°C° 0 mm 3 mps 756 mmHg 29%
12:00 +38°C° 0 mm 3 mps 756 mmHg 28%
13:00 +40°C° 0 mm 4 mps 756 mmHg 26%
14:00 +38°C° 0 mm 4 mps 756 mmHg 27%
15:00 +37°C° 0 mm 4 mps 756 mmHg 29%
16:00 +37°C° 0 mm 4 mps 756 mmHg 30%
17:00 +35°C° 0 mm 4 mps 756 mmHg 34%
18:00 +34°C° 0 mm 3 mps 756 mmHg 38%
19:00 +33°C° 0 mm 3 mps 756 mmHg 41%
20:00 +31°C° 0 mm 2 mps 756 mmHg 44%
21:00 +30°C° 0 mm 2 mps 756 mmHg 46%
22:00 +29°C° 0 mm 1 mps 757 mmHg 49%
23:00 +29°C° 0 mm 1 mps 757 mmHg 50%

10 August, Monday

Time Temperature Precipitation Wind Pressure Humidity
00:00 +28°C° 0 mm 1 mps 757 mmHg 50%
01:00 +28°C° 0 mm 1 mps 756 mmHg 51%
02:00 +27°C° 0 mm 1 mps 756 mmHg 51%
03:00 +27°C° 0 mm 1 mps 756 mmHg 52%
04:00 +27°C° 0 mm 1 mps 756 mmHg 52%
05:00 +28°C° 0 mm 1 mps 756 mmHg 49%
06:00 +29°C° 0 mm 1 mps 756 mmHg 46%
07:00 +30°C° 0 mm 1 mps 756 mmHg 43%
08:00 +32°C° 0 mm 1 mps 757 mmHg 38%
09:00 +33°C° 0 mm 1 mps 757 mmHg 33%
10:00 +36°C° 0 mm 2 mps 757 mmHg 29%
11:00 +37°C° 0 mm 2 mps 757 mmHg 29%
12:00 +37°C° 0 mm 3 mps 757 mmHg 29%
13:00 +38°C° 0 mm 4 mps 757 mmHg 29%
14:00 +37°C° 0 mm 4 mps 757 mmHg 31%
15:00 +37°C° 0 mm 4 mps 756 mmHg 33%
16:00 +36°C° 0 mm 3 mps 756 mmHg 35%
17:00 +35°C° 0 mm 3 mps 756 mmHg 39%
18:00 +34°C° 0 mm 2 mps 757 mmHg 42%
19:00 +31°C° 0 mm 2 mps 757 mmHg 46%
20:00 +30°C° 0 mm 2 mps 757 mmHg 49%
21:00 +30°C° 0 mm 1 mps 757 mmHg 53%
22:00 +29°C° 0 mm 1 mps 758 mmHg 56%
23:00 +28°C° 0 mm 1 mps 758 mmHg 58%
Show more